Home   Weather   Nottingham   Past weeks
Flag for United Kingdom

Past Weather in Nottingham, England, United Kingdom — July 2013

Now
52 °F

Sunny.


Feels Like: 51 °F
Forecast: 56 / 42 °F
Wind: 3 mph from North

Location: East Midlands

Current Time: Feb 22, 2019 at 12:32:53 pm

Latest Report: Feb 22, 2019 at 11:50 am


Visibility: 10 mi

Pressure: 30.54 "Hg

Humidity: 88%

Dew Point: 48 °F

Location of NottinghamLocation

July 2013 Weather in Nottingham — Graph

°F

High & Low Weather Summary for July 2013

 TemperatureHumidityPressure
High86 °F (Jul 13, 4:50 pm)100% (Jul 3, 5:50 am)30.60 "Hg (Jul 3, 5:50 am)
Low50 °F (Jul 2, 5:50 am)28% (Jul 9, 3:20 pm)29.50 "Hg (Jul 28, 12:50 am)
Average65 °F73%30.11 "Hg
* Reported Jul 1 12:20 am — Jul 31 11:50 pm, Nottingham. Weather by CustomWeather, © 2019

Note: Actual official high and low records may vary slightly from our data, if they occured in-between our weather recording intervals... More about our weather records

Advertising

Nottingham Weather History for July 1, 2013

Scroll right to see more
 ConditionsComfort  
Time TempWeatherWind HumidityBarometerVisibility
12:20 am
Mon, Jul 1
59 °FPassing clouds.12 mph82%30.01 "HgN/A
12:50 am57 °FPassing clouds.10 mph88%30.01 "HgN/A
1:20 am57 °FPassing clouds.10 mph88%30.01 "HgN/A
1:50 am59 °FPassing clouds.12 mph82%30.01 "HgN/A
2:20 am57 °FPassing clouds.13 mph88%29.98 "HgN/A
2:50 am57 °FPassing clouds.13 mph82%29.98 "HgN/A
3:20 am57 °FPassing clouds.12 mph82%29.98 "HgN/A
3:50 am55 °FPassing clouds.13 mph88%29.98 "HgN/A
4:20 am55 °FPassing clouds.12 mph88%29.98 "HgN/A
4:50 am55 °FPassing clouds.12 mph88%29.98 "HgN/A
5:20 am54 °FPassing clouds.12 mph88%29.98 "HgN/A
5:50 am54 °FScattered clouds.14 mph88%30.01 "HgN/A
6:20 am54 °FPassing clouds.12 mph88%30.01 "HgN/A
6:50 am54 °FPassing clouds.10 mph82%30.01 "HgN/A
7:20 am55 °FPassing clouds.12 mph77%30.01 "HgN/A
7:50 am55 °FPassing clouds.13 mph77%30.01 "HgN/A
8:20 am57 °FPassing clouds.13 mph67%30.01 "HgN/A
8:50 am57 °FScattered clouds.14 mph63%30.01 "HgN/A
9:20 am57 °FScattered clouds.12 mph63%30.01 "HgN/A
9:50 am59 °FScattered clouds.13 mph59%30.01 "HgN/A
10:20 am59 °FScattered clouds.15 mph51%30.01 "HgN/A
10:50 am59 °FScattered clouds.14 mph55%30.01 "HgN/A
11:20 am59 °FScattered clouds.13 mph59%30.01 "HgN/A
11:50 am59 °FPartly sunny.15 mph55%30.01 "HgN/A
12:20 pm59 °FPartly sunny.15 mph59%30.01 "HgN/A
12:50 pm59 °FPartly sunny.14 mph59%30.01 "HgN/A
1:20 pm59 °FPartly sunny.15 mph59%30.01 "HgN/A
1:50 pm59 °FScattered clouds.16 mph63%30.01 "HgN/A
2:20 pm61 °FScattered clouds.14 mph59%30.01 "HgN/A
2:50 pm63 °FScattered clouds.16 mph56%29.98 "HgN/A
3:20 pm61 °FScattered clouds.12 mph59%29.98 "HgN/A
3:50 pm59 °FSprinkles. Broken clouds.12 mph68%30.01 "HgN/A
4:20 pm57 °FSprinkles. Broken clouds.10 mph77%30.01 "HgN/A
4:50 pm61 °FScattered clouds.8 mph63%30.01 "HgN/A
5:20 pm61 °FScattered clouds.10 mph63%30.01 "HgN/A
5:50 pm59 °FScattered clouds.10 mph68%30.01 "HgN/A
6:20 pm61 °FScattered clouds.12 mph59%29.98 "HgN/A
6:50 pm59 °FScattered clouds.10 mph59%29.98 "HgN/A
7:20 pm59 °FScattered clouds.9 mph59%29.98 "HgN/A
7:50 pm61 °FPassing clouds.8 mph59%29.98 "HgN/A
8:20 pm57 °FPassing clouds.7 mph67%29.98 "HgN/A
8:50 pm55 °FPassing clouds.6 mph72%29.98 "HgN/A
9:20 pm55 °FPassing clouds.5 mph72%30.01 "HgN/A
9:50 pm55 °FPassing clouds.6 mph72%30.01 "HgN/A
10:20 pm54 °FPassing clouds.6 mph77%29.98 "HgN/A
10:50 pm54 °FPassing clouds.5 mph82%29.98 "HgN/A
11:20 pm54 °FPassing clouds.5 mph77%29.98 "HgN/A
11:50 pm54 °FPassing clouds.7 mph77%29.98 "HgN/A
Weather by CustomWeather, © 2019

See weather overview